H-2A DEB (43674 NORAD) Tracking and Keplerian Element Data

This shows tracking and keplerian element data for the satellite.

Feedback or suggestion? Click here.




ElementValue
Catalog43674
NameH-2A DEB
Epoch Orbit257
Epoch Day319.57073577
Epoch Year2018
RAAN69.9517
Inclination97.8561
Eccentricity0.0014091
Argument of Perigee233.2236
Mean Anonmoly126.7686
Mean Motion14.87698097
Decay Rate1.378E-05
L11 43674U 18084D 18319.57073577 .00001378 00000-0 15709-3 0 9992
L22 43674 97.8561 69.9517 0014091 233.2236 126.7686 14.87698097 2574

Live tracking and technical data element details for H-2A DEB (NORAD 43674). H-2A DEB can be tracked NOW for your location showing map with azimuth and elevation plus other details from your city location.

Track the satellite on the map from your city or location and see movement details for azimuth, elevation, latitude, longitude, range, height, and movement on the map or in text.







IsCatalogInMostPopularTable: catalog: 43674, numindb: 5
Update: records affected: 1



GetName: 43674 H-2A DEB

Hit Count: updated at: Sat, 17 Nov 2018 02:20:11 GMT